[[{"header":{"parameterUnit":"m.s-1","parameterCategory":1,"la1":30.2991,"la2":30.254,"lo1":-89.0895,"lo2":-89.0444,"dy":0.0017,"dx":0.0017,"nx":28,"ny":28,"refTime":"2024-05-15T21:00:00:Z","depth":0,"parameterNumber":2,"parameterNumberName":"U-component_of_WINDS"},"data":[0,0,0,0,0,0,0,0,0,0,0,0,0,0,0,0,0,0,0,0,0,0,0,0,0,0,0,0,0,0,0,0,0,0,0,0,0,0,0,0,0,0,0,0,0,0,0,0,0,0,0,0,0,0,0,0,0,0,-1.081,-1.081,0,-1.0786,-1.0786,-1.0786,-1.0778,-1.0778,-1.0778,-1.0778,-1.0751,-1.075,-1.0749,0,0,0,0,0,0,0,0,0,0,0,0,0,-1.0845,-1.0845,-1.081,-1.081,-1.0809,-1.0786,-1.0786,-1.0786,-1.0778,-1.0778,-1.0778,-1.0778,-1.0751,-1.075,-1.0749,0,0,0,0,0,0,0,0,0,0,0,0,0,-1.0827,-1.0845,-1.081,-1.0803,-1.0802,-1.0786,-1.0786,-1.0786,-1.0778,-1.0778,-1.0778,-1.0778,-1.0751,-1.075,-1.0749,-1.0738,0,0,-1.0745,-1.0745,0,0,0,0,0,0,0,0,-1.0828,-1.0825,-1.0804,-1.0803,-1.0802,-1.0785,-1.0789,-1.077,-1.0778,-1.0787,-1.0778,-1.0778,-1.0762,-1.076,-1.0755,-1.0737,-1.0736,-1.0745,-1.0744,-1.0744,-1.0744,0,0,0,0,0,0,0,-1.0829,-1.0826,-1.0801,-1.0804,-1.0803,-1.08,-1.0797,-1.0785,-1.0774,-1.0786,-1.0785,-1.0783,-1.0761,-1.0756,-1.0754,-1.0735,-1.0745,-1.0744,-1.0743,-1.0743,-1.0706,-1.0706,0,0,0,0,0,0,-1.0832,-1.0827,-1.0801,-1.08,-1.0816,-1.0799,-1.0796,-1.079,-1.0774,-1.0771,-1.0783,-1.0782,-1.0758,-1.0756,-1.0753,-1.0739,-1.0744,-1.0743,-1.0742,-1.0707,-1.0706,-1.0706,0,0,0,0,0,0,-1.0833,-1.083,-1.0802,-1.0813,-1.081,-1.0798,-1.0792,-1.079,-1.0785,-1.0771,-1.0769,-1.078,-1.0758,-1.0755,-1.0742,-1.0738,-1.0742,-1.0741,-1.0707,-1.0707,-1.0706,-1.0711,0,0,0,0,0,0,-1.0834,-1.083,-1.0827,-1.0814,-1.0809,-1.0792,-1.0792,-1.0789,-1.0783,-1.0782,-1.0768,-1.0765,-1.0758,-1.0744,-1.0741,-1.0736,-1.074,-1.0707,-1.0707,-1.0706,-1.0711,-1.0711,-1.071,0,0,0,0,0,-1.0835,-1.0829,-1.0827,-1.0823,-1.0805,-1.0792,-1.079,-1.0782,-1.0783,-1.0778,-1.077,-1.0766,-1.0739,-1.0743,-1.0739,-1.0734,-1.0707,-1.0707,-1.0706,-1.0711,-1.0711,-1.071,0,0,0,0,0,0,-1.0841,-1.0827,-1.0824,-1.0813,-1.0804,-1.0791,-1.0786,-1.0782,-1.0772,-1.0772,-1.0762,-1.0759,-1.0746,-1.0739,-1.0743,-1.0722,-1.0723,-1.0722,-1.0728,-1.0727,-1.0727,-1.0729,-1.0739,0,0,0,0,0,-1.0841,-1.0833,-1.0821,-1.0812,-1.0808,-1.0797,-1.0792,-1.0787,-1.0776,-1.0772,-1.0762,-1.0752,-1.0741,-1.0734,-1.0723,-1.071,-1.0706,-1.0705,-1.0704,-1.0704,-1.0703,-1.0695,-1.0694,-1.0704,-1.0704,-1.0704,0,0,-1.0841,-1.0832,-1.0827,-1.0813,-1.0805,-1.0796,-1.0794,-1.0785,-1.0777,-1.077,-1.0758,-1.075,-1.0737,-1.0724,-1.0718,-1.0718,-1.0699,-1.0704,-1.0704,-1.0703,-1.0694,-1.0693,-1.0692,-1.0704,-1.0704,-1.0704,0,0,-1.0836,-1.0829,-1.0821,-1.0813,-1.0801,-1.0795,-1.0793,-1.078,-1.0775,-1.0762,-1.0756,-1.0747,-1.0729,-1.072,-1.0713,-1.0703,-1.0699,-1.07,-1.0698,-1.069,-1.069,-1.0689,-1.0685,-1.0683,-1.0699,-1.0699,-1.0699,0,-1.0837,-1.0824,-1.0817,-1.0807,-1.0801,-1.0795,-1.0786,-1.0778,-1.0763,-1.0758,-1.0759,-1.0735,-1.0726,-1.071,-1.0708,-1.0703,-1.0699,-1.0702,-1.0691,-1.069,-1.0689,-1.0685,-1.0683,-1.0699,-1.0699,-1.0699,-1.0699,0,-1.0825,-1.0816,-1.081,-1.0797,-1.079,-1.0781,-1.0771,-1.0765,-1.076,-1.0753,-1.0739,-1.0728,-1.0715,-1.0711,-1.0706,-1.0694,-1.0694,-1.0693,-1.0693,-1.0688,-1.0684,-1.0682,-1.07,-1.0699,-1.0699,-1.0699,0,0,-1.0823,-1.0806,-1.0804,-1.0797,-1.0784,-1.0776,-1.0766,-1.0754,-1.0748,-1.0738,-1.0728,-1.0713,-1.0711,-1.0703,-1.0697,-1.069,-1.0682,-1.0689,-1.0689,-1.0688,-1.0667,-1.0668,-1.0667,-1.068,-1.0679,-1.0679,-1.0668,0,-1.0816,-1.0799,-1.0792,-1.0778,-1.0769,-1.0763,-1.0754,-1.0744,-1.0737,-1.0727,-1.0719,-1.0708,-1.0707,-1.0702,-1.0695,-1.0685,-1.0678,-1.0686,-1.067,-1.0669,-1.0673,-1.0665,-1.0666,-1.0656,-1.0667,-1.0666,-1.0666,0,-1.0805,-1.0796,-1.0781,-1.0768,-1.0764,-1.0756,-1.0744,-1.0735,-1.0723,-1.0718,-1.0709,-1.0704,-1.0692,-1.0693,-1.0676,-1.0681,-1.0674,-1.0668,-1.0668,-1.0665,-1.0667,-1.0661,-1.0653,-1.0651,-1.0664,-1.0664,-1.0664,0,-1.0804,-1.0788,-1.0776,-1.0771,-1.0756,-1.0751,-1.0744,-1.0732,-1.0725,-1.0714,-1.0709,-1.0696,-1.0689,-1.0679,-1.0669,-1.0671,-1.0652,-1.0653,-1.0647,-1.0647,-1.0643,-1.0643,-1.0632,-1.064,-1.064,-1.064,-1.064,0,-1.0797,-1.0788,-1.0776,-1.0769,-1.0758,-1.075,-1.0739,-1.0732,-1.0721,-1.0712,-1.0705,-1.0696,-1.0685,-1.0674,-1.0667,-1.0653,-1.065,-1.0645,-1.0642,-1.0645,-1.0645,-1.064,-1.064,-1.0639,-1.0639,-1.0639,-1.064,0,-1.0794,-1.0786,-1.0773,-1.076,-1.0756,-1.0749,-1.0737,-1.0729,-1.0722,-1.071,-1.0706,-1.0694,-1.0681,-1.0671,-1.0653,-1.0648,-1.0633,-1.0632,-1.0638,-1.0636,-1.0631,-1.0631,-1.0615,-1.0612,-1.0622,-1.0622,-1.0622,0,-1.0789,-1.0782,-1.0768,-1.0762,-1.0756,-1.0745,-1.0738,-1.0729,-1.0722,-1.0707,-1.0701,-1.0688,-1.0676,-1.0655,-1.0644,-1.0631,-1.0628,-1.0623,-1.0626,-1.0628,-1.0627,-1.0627,-1.0626,-1.0623,-1.0623,-1.0623,-1.0623,0,-1.0782,-1.0778,-1.0768,-1.0757,-1.0748,-1.0739,-1.0729,-1.0724,-1.0713,-1.0704,-1.0691,-1.0682,-1.0665,-1.0651,-1.0636,-1.0628,-1.0623,-1.0622,-1.062,-1.0621,-1.0625,-1.0622,-1.0636,-1.0622,-1.0622,-1.0622,-1.0622,-1.0622,-1.0778,-1.0771,-1.076,-1.0749,-1.074,-1.0731,-1.0723,-1.0715,-1.0704,-1.069,-1.0685,-1.0671,-1.0658,-1.0638,-1.0629,-1.0617,-1.0617,-1.0614,-1.0613,-1.0612,-1.0612,-1.0628,-1.0615,-1.0615,-1.0615,-1.0615,-1.0615,0,-1.0769,-1.0762,-1.0752,-1.0738,-1.0729,-1.0726,-1.0715,-1.0707,-1.0695,-1.0684,-1.0674,-1.0658,-1.0644,-1.0632,-1.0618,-1.061,-1.0608,-1.0607,-1.0607,-1.0605,-1.0614,-1.0617,-1.0609,-1.0609,-1.0609,-1.0609,-1.0609,-1.0609,-1.0764,-1.0752,-1.0747,-1.073,-1.0722,-1.0709,-1.0703,-1.0694,-1.0685,-1.0668,-1.0657,-1.0649,-1.0637,-1.0622,-1.0609,-1.0605,-1.06,-1.06,-1.0595,-1.0604,-1.0604,-1.0605,-1.0608,-1.0599,-1.0599,-1.0587,-1.0587,-1.0587]},{"header":{"parameterUnit":"m.s-1","parameterCategory":1,"la1":30.2991,"la2":30.254,"lo1":-89.0895,"lo2":-89.0444,"dy":0.0017,"dx":0.0017,"nx":28,"ny":28,"refTime":"2024-05-15T21:00:00:Z","depth":0,"parameterNumber":3,"parameterNumberName":"V-component_of_WINDS"},"data":[0,0,0,0,0,0,0,0,0,0,0,0,0,0,0,0,0,0,0,0,0,0,0,0,0,0,0,0,0,0,0,0,0,0,0,0,0,0,0,0,0,0,0,0,0,0,0,0,0,0,0,0,0,0,0,0,0,0,0.1099,0.1098,0,0.1006,0.1005,0.1004,0.0922,0.0921,0.092,0.0919,0.0824,0.0822,0.0821,0,0,0,0,0,0,0,0,0,0,0,0,0,0.1208,0.1206,0.1099,0.1098,0.1097,0.1006,0.1005,0.1004,0.0922,0.0921,0.092,0.0919,0.0825,0.0823,0.0821,0,0,0,0,0,0,0,0,0,0,0,0,0,0.1142,0.1206,0.11,0.1045,0.104,0.1006,0.1005,0.1003,0.0922,0.0921,0.092,0.0918,0.0825,0.0823,0.082,0.0833,0,0,0.0813,0.0812,0,0,0,0,0,0,0,0,0.1146,0.1138,0.1055,0.1049,0.1043,0.0974,0.1008,0.0946,0.0923,0.0967,0.0919,0.0918,0.0875,0.0869,0.0854,0.0829,0.0825,0.0813,0.0811,0.081,0.0809,0,0,0,0,0,0,0,0.1151,0.1142,0.1062,0.1054,0.1046,0.1026,0.1015,0.0996,0.093,0.0963,0.0957,0.0947,0.0872,0.0857,0.0851,0.0823,0.0813,0.081,0.0809,0.0808,0.0804,0.0806,0,0,0,0,0,0,0.1164,0.1146,0.1065,0.106,0.1092,0.1025,0.1013,0.0998,0.093,0.0918,0.0948,0.0943,0.0862,0.0854,0.0848,0.0858,0.081,0.0808,0.0806,0.0803,0.0805,0.0806,0,0,0,0,0,0,0.1166,0.1157,0.1069,0.1101,0.1089,0.1025,0.1008,0.0996,0.0981,0.0919,0.0907,0.0945,0.086,0.0851,0.0838,0.0854,0.0807,0.0804,0.0801,0.0804,0.0806,0.088,0,0,0,0,0,0,0.117,0.1159,0.1163,0.1102,0.1087,0.1061,0.1009,0.0996,0.0977,0.097,0.0913,0.0902,0.0858,0.0842,0.0835,0.085,0.0802,0.08,0.0802,0.0805,0.0876,0.0885,0.0892,0,0,0,0,0,0.1174,0.1188,0.1163,0.1154,0.1091,0.1062,0.1053,0.1003,0.0979,0.0983,0.0943,0.0904,0.0853,0.0841,0.0833,0.0847,0.0798,0.0802,0.0805,0.0873,0.0883,0.0892,0,0,0,0,0,0,0.1252,0.1179,0.1151,0.1145,0.111,0.1048,0.1051,0.1016,0.0987,0.0981,0.092,0.0908,0.0901,0.0873,0.086,0.0856,0.0821,0.0822,0.0875,0.0885,0.0892,0.0899,0.08,0,0,0,0,0,0.1268,0.1251,0.1188,0.1189,0.1173,0.1115,0.1101,0.1065,0.1026,0.1011,0.097,0.0934,0.091,0.0896,0.087,0.0872,0.0858,0.0877,0.0886,0.0892,0.0895,0.0893,0.0901,0.0817,0.0817,0.0817,0,0,0.1302,0.126,0.1253,0.1203,0.1172,0.1155,0.1103,0.1088,0.1075,0.1009,0.0993,0.0962,0.0918,0.0913,0.0908,0.0888,0.0915,0.0896,0.0902,0.0901,0.0898,0.0906,0.0913,0.0819,0.0818,0.0818,0,0,0.1355,0.1322,0.1319,0.1289,0.1242,0.1204,0.1204,0.1147,0.1123,0.1107,0.1057,0.1041,0.1001,0.0972,0.0952,0.0995,0.0959,0.0989,0.1031,0.103,0.1037,0.1043,0.1058,0.1064,0.0991,0.0991,0.0991,0,0.1403,0.1376,0.1322,0.131,0.129,0.1229,0.1226,0.12,0.1148,0.1135,0.1114,0.1063,0.1029,0.1016,0.1027,0.1012,0.101,0.0995,0.104,0.1045,0.105,0.1064,0.107,0.0995,0.0995,0.0994,0.0994,0,0.1437,0.1419,0.1423,0.1374,0.1354,0.1347,0.1292,0.1279,0.1245,0.1209,0.1194,0.1151,0.1116,0.111,0.1077,0.1093,0.1082,0.1052,0.1015,0.1063,0.1075,0.108,0.1001,0.1,0.0998,0.0997,0,0,0.1536,0.1458,0.1461,0.1438,0.1382,0.1367,0.1357,0.1323,0.1313,0.1279,0.1269,0.1237,0.1209,0.1187,0.115,0.115,0.1187,0.1119,0.1117,0.1133,0.1201,0.1225,0.1232,0.1162,0.1163,0.1164,0.1205,0,0.1581,0.1559,0.151,0.1504,0.1487,0.143,0.1421,0.1386,0.1353,0.1334,0.1296,0.1275,0.1239,0.1225,0.1222,0.1183,0.12,0.1179,0.1153,0.1152,0.1165,0.1238,0.1262,0.1303,0.1209,0.121,0.1211,0,0.1629,0.1599,0.1591,0.1537,0.1528,0.1521,0.1486,0.1468,0.1428,0.1403,0.1379,0.1338,0.1325,0.1291,0.1272,0.126,0.1246,0.1225,0.1225,0.1221,0.1185,0.1236,0.1315,0.1321,0.1218,0.1217,0.1217,0,0.1702,0.1659,0.1649,0.1631,0.1568,0.1565,0.1538,0.1497,0.1479,0.1449,0.1437,0.1406,0.1389,0.1366,0.1318,0.1298,0.1304,0.1267,0.1284,0.1285,0.1288,0.1288,0.1366,0.1279,0.1279,0.1279,0.1279,0,0.1756,0.1753,0.1681,0.1675,0.167,0.1615,0.1612,0.158,0.1544,0.1531,0.148,0.1468,0.1406,0.1388,0.135,0.1341,0.1333,0.1313,0.1303,0.1318,0.132,0.1308,0.1304,0.1281,0.128,0.128,0.128,0,0.1837,0.1788,0.1773,0.1715,0.17,0.17,0.165,0.1642,0.1605,0.1589,0.1582,0.1526,0.1501,0.1452,0.1414,0.1389,0.1388,0.137,0.1401,0.1395,0.1415,0.1414,0.1488,0.1495,0.1404,0.1405,0.1406,0,0.1874,0.1871,0.1813,0.18,0.1776,0.1756,0.1738,0.1684,0.1668,0.1622,0.162,0.1591,0.1566,0.153,0.1486,0.1457,0.1438,0.1466,0.1433,0.1448,0.1438,0.1439,0.1438,0.1473,0.1474,0.1475,0.1476,0,0.1946,0.1923,0.1899,0.1867,0.1848,0.182,0.1789,0.1782,0.1721,0.1705,0.168,0.166,0.1622,0.1595,0.1559,0.1532,0.1494,0.1487,0.1489,0.1504,0.1522,0.1513,0.1421,0.1485,0.1484,0.1484,0.1483,0.1483,0.2006,0.2001,0.1959,0.1934,0.1906,0.1879,0.1869,0.1832,0.1809,0.1774,0.1743,0.1721,0.1681,0.163,0.1605,0.1587,0.1568,0.1572,0.1573,0.1574,0.1581,0.1526,0.158,0.158,0.158,0.1579,0.1579,0,0.2076,0.2046,0.2024,0.1983,0.1964,0.1931,0.1895,0.1882,0.1863,0.1829,0.1805,0.1776,0.175,0.1704,0.1673,0.1668,0.165,0.1662,0.1662,0.1656,0.1599,0.16,0.1677,0.1677,0.1677,0.1677,0.1677,0.1677,0.2109,0.2098,0.207,0.2045,0.2015,0.1993,0.1976,0.1951,0.1923,0.1894,0.1871,0.1842,0.1803,0.177,0.1744,0.1731,0.1722,0.174,0.1722,0.1669,0.166,0.1651,0.1652,0.1739,0.1739,0.178,0.178,0.1781]}]]